Flag for Germany Weather past 2 weeks in Garmisch-Partenkirchen, Bavaria, Germany

Now
32 °F

Snow. Partly cloudy.


Feels Like: 27 °F
Forecast: 23 / 34 °F
Wind: 5 mph from North

Location: Innsbruck-Flughafen

Current Time: Jan 27, 2015 at 10:07:16 PM

Latest Report: Jan 27, 2015 at 9:20 PM


Visibility: 1 mi

Pressure: 30.09 "Hg

Humidity: 93%

Dew point: 30 °F

Location of Garmisch-PartenkirchenLocation

Historic Weather in Garmisch-Partenkirchen — Graph

°F

Garmisch-Partenkirchen temperature yesterday

Maximum temperature yesterday: 37 °F (at 1:20 PM)
Minimum temperature yesterday: 23 °F (at 4:20 AM)
Average temperature yesterday: 29 °F

Past Weeks' High & Low Weather Summary

 TemperatureHumidityPressure
High55 °F (Jan 16, 2:20 PM)100% (Jan 14, 8:20 PM)30.36 "Hg (Jan 14, 8:20 PM)
Low23 °F (Jan 21, 1:50 AM)34% (Jan 13, 2:20 PM)29.68 "Hg (Jan 16, 9:50 PM)
Average33 °F84%29.99 "Hg
* Reported Jan 12 8:20 PM — Jan 27 8:50 PM, Garmisch-Partenkirchen, Weather by CustomWeather, © 2014

Note: Actual official high and low records may vary slightly from our data, if they occured in-between our weather recording intervals... More about our weather records

Advertising

Garmisch-Partenkirchen weather history for previous 24 hours

 ConditionsComfort  
Time TempWeatherWind HumidityBarometerVisibility
8:50 PM
Jan 27
30 °FSnow. Partly cloudy.9 mph100%30.09 "Hg1 mi
8:20 PM32 °FSnow. Partly cloudy.10 mph87%30.09 "Hg2 mi
7:50 PM30 °FSnow. Partly cloudy.6 mph100%30.09 "Hg2 mi
7:20 PM30 °FSnow. Partly cloudy.8 mph100%30.09 "Hg2 mi
6:50 PM30 °FSnow. Partly cloudy.8 mph100%30.09 "Hg2 mi
6:20 PM32 °FSnow. Partly cloudy.8 mph93%30.07 "Hg2 mi
5:50 PM32 °FLight snow. Passing clouds.9 mph87%30.07 "Hg4 mi
5:20 PM32 °FLight snow. Mostly cloudy.12 mph87%30.07 "Hg5 mi
4:50 PM34 °FLight snow. More clouds than sun.8 mph81%30.07 "HgN/A
4:20 PM34 °FLight snow. Broken clouds.8 mph81%30.07 "HgN/A
3:50 PM34 °FLight snow. Broken clouds.6 mph87%30.07 "HgN/A
3:20 PM34 °FLight snow. Broken clouds.3 mph87%30.07 "HgN/A
2:50 PM34 °FLight snow. Broken clouds.8 mph87%30.07 "HgN/A
2:20 PM34 °FLight snow. Broken clouds.6 mph81%30.07 "HgN/A
1:50 PM34 °FSnow. Fog.5 mph87%30.09 "Hg2 mi
1:20 PM34 °FSnow. Fog.6 mph87%30.09 "Hg1 mi
12:50 PM34 °FSnow. Fog.7 mph93%30.09 "Hg2 mi
12:20 PM32 °FSnow. Ice fog.5 mph93%30.09 "Hg1 mi
11:50 AM32 °FSleet. Ice fog.6 mph93%30.09 "Hg4 mi
11:20 AM32 °FLight snow. Broken clouds.5 mph93%30.09 "Hg4 mi
10:50 AM32 °FLight snow. Broken clouds.3 mph87%30.09 "Hg5 mi
10:20 AM32 °FLight snow. Broken clouds.3 mph87%30.09 "Hg5 mi
9:50 AM32 °FLight snow. Broken clouds.1 mph93%30.07 "Hg4 mi
9:20 AM30 °FSleet. Broken clouds.1 mph93%30.09 "HgN/A
8:50 AM28 °FBroken clouds.2 mph100%30.07 "Hg5 mi
8:20 AM30 °FBroken clouds.2 mph93%30.07 "Hg5 mi
7:50 AM28 °FLight mixture of precip. Broken clouds.1 mph100%30.07 "Hg2 mi
7:20 AM30 °FSnow. Mostly cloudy.1 mph93%30.07 "Hg2 mi
6:50 AM30 °FSnow. Partly cloudy.2 mph93%30.07 "Hg2 mi
6:20 AM30 °FLight snow. Partly cloudy.2 mph93%30.07 "Hg4 mi
5:50 AM30 °FLight snow. Partly cloudy.2 mph93%30.04 "Hg4 mi
4:50 AM28 °FLight snow. Partly cloudy.1 mph100%30.07 "Hg3 mi
4:20 AM28 °FLight snow. Partly cloudy.1 mph100%30.04 "Hg2 mi
3:50 AM28 °FSnow. Partly cloudy.1 mph100%30.07 "Hg2 mi
3:20 AM28 °FLight snow. Passing clouds.No wind100%30.07 "Hg2 mi
2:50 AM28 °FSnow. Partly cloudy.1 mph100%30.07 "Hg1 mi
2:20 AM28 °FSnow. Passing clouds.2 mph100%30.07 "Hg2 mi
1:50 AM28 °FSnow. Passing clouds.1 mph100%30.07 "Hg1 mi
1:20 AM28 °FSnow. Passing clouds.1 mph100%30.07 "Hg1 mi
12:50 AM28 °FSnow. Passing clouds.No wind100%30.07 "Hg1 mi
12:20 AM28 °FSnow. Passing clouds.No wind100%30.09 "Hg1 mi
11:50 PM
Jan 26
28 °FSnow. Passing clouds.No wind100%30.09 "Hg2 mi
11:20 PM28 °FSnow. Passing clouds.1 mph100%30.12 "Hg1 mi
10:50 PM28 °FSnow. Partly cloudy.2 mph93%30.12 "Hg1 mi
10:20 PM28 °FSnow. Partly cloudy.1 mph93%30.12 "Hg1 mi
Weather by CustomWeather, © 2014

See weather overviewHow to use our weather pages